Estación municipal de Susqueda - St. Martí Sacalm (La Selva, )

Consulta los datos en tiempo real de la estación municipal de Susqueda - St. Martí Sacalm





Hora UTC 06:30
Temperatura 24.1 ºC
Humedad 52.3 %
Presión 1024.3 hPa
Pluja 0.0 mm
Velocidad viento 7.4 km/h
Dirección viento SW
Radiación solar 151.3 W/m²

Datos diarios 2026-09-06



Hora UTC (invierno +1h; verano +2h)
Temperatura (ºC) Humedad (%) Presión (hPa) Velocidad viento (km/h) Precipitación (mm) Radiación solar (W/m²)
Hora UTC Aire Humedad Presión Vel. Dir. Vel. Max Dir. Intent. máx 5 min. Rad. Sol.
00:05 24.3 49.0 1024.7 9.8 SW 9.8 SW 0.0 0.2
00:10 24.3 48.9 1024.7 9.6 SW 12.0 SW 0.0 0.1
00:15 24.3 48.9 1024.7 8.4 SW 11.3 SW 0.0 0.1
00:20 24.4 48.7 1024.7 9.2 SW 12.7 SSW 0.0 0.1
00:25 24.5 48.8 1024.6 11.6 SW 15.5 SW 0.0 0.1
00:30 24.4 49.1 1024.6 11.2 SW 14.5 SW 0.0 0.1
00:35 24.2 49.8 1024.6 9.2 SW 11.0 SW 0.0 0.1
00:40 24.1 50.1 1024.5 8.4 SW 10.3 SW 0.0 0.1
00:45 24.1 50.0 1024.5 9.9 SW 12.7 SW 0.0 0.1
00:50 24.3 49.4 1024.5 10.8 SW 13.1 SW 0.0 0.2
00:55 24.1 50.1 1024.5 10.0 SSW 12.7 SSW 0.0 0.1
01:00 23.8 51.0 1024.5 8.5 SW 11.3 SSW 0.0 0.1
01:05 23.8 51.1 1024.5 9.6 SW 12.0 SW 0.0 0.1
01:10 23.7 51.2 1024.5 9.6 SW 12.7 SW 0.0 0.1
01:15 23.9 50.8 1024.4 10.4 SW 13.8 SW 0.0 0.1
01:20 24.2 50.2 1024.4 11.1 SW 13.8 SW 0.0 0.1
01:25 24.1 50.3 1024.4 11.1 SW 14.8 SW 0.0 0.1
01:30 23.9 50.9 1024.4 10.5 SW 12.7 SW 0.0 0.1
01:35 23.8 51.2 1024.4 10.3 SW 12.7 SSW 0.0 0.1
01:40 23.7 51.5 1024.4 10.1 SW 12.7 SW 0.0 0.1
01:45 23.6 51.6 1024.4 10.2 SW 12.4 SSW 0.0 0.1
01:50 23.6 51.8 1024.4 9.5 SW 12.4 SSW 0.0 0.1
01:55 23.5 52.1 1024.4 9.3 SW 12.4 SW 0.0 0.1
02:00 23.6 51.9 1024.4 8.8 SW 11.3 SW 0.0 0.1
02:05 23.8 51.5 1024.4 8.6 SW 11.0 SW 0.0 0.1
02:10 24.0 51.0 1024.4 9.5 SW 11.7 SW 0.0 0.1
02:15 24.0 51.0 1024.4 8.7 SW 10.3 SW 0.0 0.2
02:20 24.0 51.1 1024.4 9.1 SSW 10.6 SSW 0.0 0.1
02:25 23.9 51.5 1024.3 8.6 SSW 11.0 SSW 0.0 0.1
02:30 23.8 51.8 1024.3 7.6 SSW 10.3 SSW 0.0 0.1
02:35 23.5 52.4 1024.3 6.9 SW 9.5 SW 0.0 0.1
02:40 23.5 52.4 1024.2 7.9 SW 10.6 SW 0.0 0.1
02:45 23.4 52.7 1024.2 9.5 SW 12.7 SW 0.0 0.1
02:50 23.5 52.5 1024.2 9.6 SW 11.7 SW 0.0 0.1
02:55 23.6 52.4 1024.1 9.9 SW 13.1 SW 0.0 0.1
03:00 23.5 52.6 1024.1 10.6 SW 14.1 SW 0.0 0.1
03:05 23.5 52.7 1024.1 11.9 SW 16.6 SW 0.0 0.1
03:10 23.5 52.8 1024.1 9.9 SW 13.1 SSW 0.0 0.1
03:15 23.3 53.3 1024.1 9.3 SW 12.7 SW 0.0 0.1
03:20 23.2 53.5 1024.1 8.4 SW 10.6 SW 0.0 0.1
03:25 23.3 53.2 1024.1 9.0 SW 11.3 SW 0.0 0.1
03:30 23.2 53.5 1024.1 8.9 SW 12.0 SSW 0.0 0.1
03:35 23.1 53.6 1024.1 9.2 SW 13.4 SW 0.0 0.1
03:40 23.4 52.9 1024.0 7.9 SW 12.0 SSW 0.0 0.1
03:45 23.6 52.5 1024.0 8.9 SSW 10.3 SSW 0.0 0.1
03:50 23.7 52.3 1024.0 7.3 SSW 9.5 SSW 0.0 0.1
03:55 23.6 52.4 1024.0 6.3 SW 8.5 SW 0.0 0.1
04:00 23.6 52.5 1023.9 5.3 SSW 8.1 SSW 0.0 0.1
04:05 23.5 52.8 1023.9 4.7 SSW 6.7 SSW 0.0 0.1
04:10 23.9 51.8 1023.9 4.9 SSW 7.1 SSW 0.0 0.1
04:15 24.0 51.5 1023.9 5.1 SW 7.4 SW 0.0 0.1
04:20 24.0 51.4 1023.9 6.2 SW 7.8 SSW 0.0 0.2
04:25 24.2 50.6 1023.9 6.0 SW 8.8 SW 0.0 0.1
04:30 24.4 50.0 1023.9 5.9 SW 8.8 SW 0.0 0.1
04:35 24.3 50.3 1023.9 5.5 SW 7.8 SW 0.0 0.1
04:40 24.2 50.6 1023.8 6.7 SW 8.5 SW 0.0 0.1
04:45 24.3 50.2 1023.8 6.7 SW 8.1 SW 0.0 0.1
04:50 24.5 49.5 1023.8 7.1 SW 8.5 SSW 0.0 0.2
04:55 24.6 49.4 1023.8 6.7 SSW 8.8 SW 0.0 0.2
05:00 24.5 49.6 1023.8 2.5 SW 7.8 SW 0.0 0.2
05:05 24.2 50.5 1023.9 7.6 SW 8.8 SW 0.0 0.6
05:10 24.0 51.1 1023.9 6.8 SW 8.1 SSW 0.0 1.3
05:15 23.9 51.3 1023.9 7.1 SW 8.5 SW 0.0 2.6
05:20 24.0 51.1 1023.9 7.4 SW 8.8 SW 0.0 4.7
05:25 23.9 51.4 1023.9 7.9 SW 9.2 SSW 0.0 7.7
05:30 23.9 51.5 1023.9 8.6 SW 11.0 SW 0.0 12.2
05:35 23.9 51.5 1023.9 9.3 SSW 11.0 SSW 0.0 17.9
05:40 23.9 51.7 1024.0 9.9 SW 13.8 SW 0.0 25.5
05:45 24.0 51.7 1024.0 9.1 SSW 11.3 SW 0.0 34.7
05:50 23.8 52.1 1024.0 8.8 SSW 11.3 SW 0.0 44.9
05:55 23.8 52.2 1024.0 9.6 SSW 12.4 SSW 0.0 56.1
06:00 23.9 52.2 1024.0 9.9 SSW 11.7 SSW 0.0 68.1
06:05 23.9 52.3 1024.1 8.5 SSW 11.3 SSW 0.0 81.1
06:10 24.0 52.1 1024.1 7.4 SW 9.5 SW 0.0 93.9
06:15 24.1 52.0 1024.1 8.6 SW 10.3 SW 0.0 107.6
06:20 24.1 52.0 1024.2 8.8 SW 10.6 SW 0.0 122.0
06:25 24.0 52.1 1024.3 8.7 SW 10.3 SW 0.0 136.5
06:30 24.1 52.3 1024.3 7.4 SW 9.2 SSW 0.0 151.3
Máxima 24.6 53.6 1024.7 11.9 SW 16.6 SW 0.0 151.3
Mínima 20 48.7 1023.8
Total 0.0